Grand Canyon, AZ

12:15 PM MST on April 30, 2017 (GMT -0700)
Grand Canyon National Park

Weather History for KGCN - November, 2011

Change the Weather History Date:

Wednesday, November 9, 2011

  Actual Average Record
Temperature  
Mean Temperature 28 °F -  
Max Temperature 41 °F 50 °F 69 °F (1980)
Min Temperature 14 °F 21 °F 14 °F (2011)
Degree Days  
Heating Degree Days 38    
Moisture  
Dew Point 20 °F    
Average Humidity 65    
Maximum Humidity 88    
Minimum Humidity 49    
Precipitation  
Precipitation 0.00 in - - ()
Sea Level Pressure  
Sea Level Pressure 30.44 in    
Wind  
Wind Speed 8 mph (ENE)    
Max Wind Speed 21 mph    
Max Gust Speed 30 mph    
Visibility 10 miles    
Events      
Averages and records for this station are not official NWS values.
T = Trace of Precipitation, MM = Missing Value Source: NWS Daily Summary

Daily Weather History Graph

Daily Weather History Graph

Search for Another Location

Airport or City:

Trip Planner

Search our weather history database for the weather conditions in past years. The results will help you decide how hot, cold, wet, or windy it might be!

Date:

Astronomy

Nov. 09, 2011 Rise Set
Actual Time 6:58 AM MST 5:25 PM MST
Civil Twilight 6:31 AM MST 5:52 PM MST
Nautical Twilight 6:01 AM MST 6:23 PM MST
Astronomical Twilight 5:31 AM MST 6:53 PM MST
Moon 4:40 PM MST (11/9) 5:58 AM MST (11/9)
Length of Visible Light 11h 20m
Length of Day
10h 26m
Waxing Gibbous, 99% of the Moon is Illuminated
Nov 9
Waxing Gibbous
Nov 10
Full
Nov 18
Last Quarter
Nov 24
New
Dec 2
First Quarter

Hourly Weather History & Observations

Time (MST) Temp. Windchill Dew Point Humidity Pressure Visibility Wind Dir Wind Speed Gust Speed Precip Events Conditions
12:54 AM 18.0 °F 12.7 °F 14.0 °F 84% 30.39 in 10.0 mi NE 3.5 mph - N/A   Clear
1:54 AM 17.1 °F - 14.0 °F 88% 30.40 in 10.0 mi Calm Calm - N/A   Clear
2:54 AM 14.0 °F - 10.9 °F 88% 30.42 in 10.0 mi Calm Calm - N/A   Clear
3:54 AM 27.0 °F 18.0 °F 21.0 °F 78% 30.35 in 10.0 mi ENE 9.2 mph - N/A   Clear
4:54 AM 28.9 °F 21.1 °F 21.0 °F 72% 30.36 in 10.0 mi ENE 8.1 mph - N/A   Clear
5:54 AM 30.0 °F 19.5 °F 19.9 °F 66% 30.40 in 10.0 mi ENE 13.8 mph 20.7 mph N/A   Clear
6:54 AM 30.0 °F 21.1 °F 19.0 °F 64% 30.44 in 10.0 mi NE 10.4 mph 19.6 mph N/A   Clear
7:54 AM 30.9 °F 18.4 °F 19.9 °F 64% 30.46 in 10.0 mi ENE 20.7 mph 29.9 mph N/A   Clear
8:54 AM 34.0 °F 24.2 °F 19.9 °F 56% 30.49 in 10.0 mi ENE 15.0 mph 27.6 mph N/A   Clear
9:54 AM 35.1 °F 24.1 °F 21.0 °F 57% 30.51 in 10.0 mi NE 19.6 mph 26.5 mph N/A   Clear
10:54 AM 37.4 °F 28.2 °F 21.2 °F 52% 30.45 in 10.0 mi ENE 16.1 mph 25.3 mph N/A   Clear
12:54 PM 39.9 °F 32.9 °F 24.1 °F 53% 30.48 in 10.0 mi ENE 11.5 mph 20.7 mph N/A   Clear
1:54 PM 41.0 °F 34.3 °F 23.0 °F 49% 30.46 in 10.0 mi ENE 11.5 mph - N/A   Clear
2:54 PM 41.0 °F 33.9 °F 24.1 °F 51% 30.47 in 10.0 mi NE 12.7 mph - N/A   Clear
3:54 PM 39.9 °F 33.9 °F 23.0 °F 51% 30.43 in 10.0 mi ENE 9.2 mph - N/A   Clear
4:54 PM 37.9 °F 32.1 °F 21.9 °F 53% 30.42 in 10.0 mi ENE 8.1 mph - N/A   Clear
5:54 PM 30.9 °F 26.2 °F 21.9 °F 69% 30.45 in 10.0 mi East 4.6 mph - N/A   Clear
6:54 PM 27.0 °F - 21.0 °F 78% 30.48 in 10.0 mi Calm Calm - N/A   Clear
7:54 PM 26.1 °F - 19.9 °F 78% 30.48 in 10.0 mi Calm Calm - N/A   Clear
8:54 PM 32.0 °F 23.6 °F 21.0 °F 64% 30.45 in 10.0 mi ENE 10.4 mph - N/A   Clear
9:54 PM 33.1 °F 23.9 °F 21.0 °F 61% 30.46 in 10.0 mi NE 12.7 mph - N/A   Clear
10:54 PM 33.1 °F 25.5 °F 21.0 °F 61% 30.45 in 10.0 mi ENE 9.2 mph - N/A   Clear
11:54 PM 32.0 °F 24.8 °F 19.0 °F 59% 30.45 in 10.0 mi ENE 8.1 mph - N/A   Clear